AO-123
1 61781U 24199AY 26169.85915098 .00006296 00000-0 18330-3 0 9998
2 61781 97.2994 38.5146 0012169 307.4098 52.6038 15.35695532134187
JINJUSat 1B
1 63210U 25052A 26169.64673337 .00013316 00000-0 41270-3 0 9990
2 63210 97.4001 66.4035 0005470 87.7110 272.4759 15.33541633 70321
NUSHSAT 1
1 63211U 25052B 26169.68808097 .00016044 00000-0 45914-3 0 9998
2 63211 97.3978 67.0160 0005192 90.4522 269.7316 15.36020272 70376
TEVEL2-4
1 63213U 25052D 26169.16026822 .00013925 00000-0 41679-3 0 9990
2 63213 97.3899 65.5534 0004892 101.1057 259.0736 15.34638877 70267
TEVEL2-5
1 63214U 25052E 26169.24609025 .00014381 00000-0 43269-3 0 9996
2 63214 97.3896 65.5869 0004830 102.4501 257.7282 15.34468179 70274
TEVEL2-6
1 63215U 25052F 26169.64972185 .00014665 00000-0 44149-3 0 9994
2 63215 97.3902 65.9753 0004754 102.3896 257.7879 15.34444200 70338
TEVEL2-1
1 63217U 25052H 26167.98311732 .00015254 00000-0 46759-3 0 9990
2 63217 97.3878 63.9315 0004776 114.0246 246.1497 15.33862790 70062
TEVEL2-3
1 63218U 25052J 26169.21721413 .00013636 00000-0 41717-3 0 9991
2 63218 97.3876 65.1876 0004784 111.6864 248.4888 15.33951855 70256
TEVEL2-2
1 63219U 25052K 26169.61432708 .00013531 00000-0 41444-3 0 9993
2 63219 97.3876 65.5651 0004772 111.0401 249.1353 15.33915374 70318
TEVEL2-9
1 63237U 25052AD 26169.20167564 .00012483 00000-0 40696-3 0 9996
2 63237 97.3936 64.5254 0007883 127.9534 232.2421 15.31922489 70189
TEVEL2-7
1 63238U 25052AE 26169.70010282 .00011996 00000-0 39463-3 0 9994
2 63238 97.3937 64.9383 0008007 127.0437 233.1538 15.31638838 70259
TEVEL2-8
1 63239U 25052AF 26169.64303769 .00012666 00000-0 41670-3 0 9991
2 63239 97.3938 64.8582 0007990 127.5686 232.6282 15.31622115 70242
SPIRONE
1 66657U 25274H 26169.72887493 .00001505 00000-0 14807-3 0 9996
2 66657 97.7480 98.9980 0012531 16.8581 343.3053 14.93549213 30455
K-HERO
1 66660U 25274L 26169.73303941 .00001535 00000-0 14927-3 0 9998
2 66660 97.7486 99.1641 0014491 19.9270 340.2513 14.93966374 30467
SNUGLITE-III DURI
1 66661U 25274M 26169.78774696 .00001045 00000-0 10323-3 0 9995
2 66661 97.7484 99.2388 0015153 20.4014 339.7808 14.94005704 30477
SAKHACUBE-CHOLBON
1 67290U 25313AU 26169.73515258 .00007476 00000-0 30292-3 0 9991
2 67290 97.3928 244.7506 0008685 359.9082 0.2153 15.24911323 26218
RS95S (QMR-KWT-2)
1 67291U 25313AV 26169.19751839 .00009779 00000-0 37905-3 0 9995
2 67291 97.3928 244.3972 0008079 359.4201 0.7027 15.26314664 26141
Ten-Koh2
1 68261U 25241B 26166.70419506 .00005304 00000-0 23027-3 0 9999
2 68261 51.6697 326.6857 0006067 137.6687 222.4761 15.23889978 14686
JACK-002
1 68417U 26067B 26169.67616620 .00005002 00000-0 23946-3 0 9999
2 68417 97.4572 128.2483 0000035 103.4593 256.6646 15.19408886 12179
DISCO 2
1 68431U 26067R 26169.63177850 .00006992 00000-0 33644-3 0 9993
2 68431 97.4605 128.1928 0002651 41.0298 319.1135 15.19091137 12164
HADES-SA (SpinnyONE)
1 68446U 26067AG 26169.80272640 .00013380 00000-0 63937-3 0 9998
2 68446 97.4411 128.0749 0009437 78.0016 282.2276 15.19104540 12172
PARUS-6U1
1 68456U 26067AS 26169.77097646 .00004719 00000-0 23842-3 0 9993
2 68456 97.4555 128.1099 0007382 67.6408 292.5608 15.17529812 12171
SAL-E
1 68458U 26067AU 26169.63430590 .00006585 00000-0 32902-3 0 9999
2 68458 97.4483 127.9107 0007863 75.3508 284.8597 15.17772396 12157
FSI-SAT 2
1 68792U 26088A 26169.68028264 .00003518 00000-0 23941-3 0 9995
2 68792 97.5080 318.9017 0016014 102.0358 258.2666 15.06848218 8515
OrigamiSat 2
1 68795U 26088D 26168.95805529 .00010866 00000-0 69331-3 0 9991
2 68795 97.5079 318.3357 0016131 78.7559 281.5481 15.08753974 8418
ARICA 2
1 68796U 26088E 26169.68717231 .00003775 00000-0 24572-3 0 9994
2 68796 97.5069 319.0380 0017048 75.5512 284.7607 15.08439728 8529
WASEDA-SAT-ZERO-II
1 68797U 26088F 26169.68267289 .00004926 00000-0 31745-3 0 9997
2 68797 97.5069 319.0428 0016843 75.5070 284.8026 15.08658562 8529
MANGARO-II-Piscus
1 68798U 26088G 26168.94346623 .00003188 00000-0 20586-3 0 9996
2 68798 97.5078 318.3492 0020620 80.1236 280.2320 15.08791826 8413
IO-86
1 40931U 25360.30710720 .00000000 00000-0 12800-3 0 00
2 40931 6.0006 332.5373 0012733 338.8432 8.1437 14.79075515 01
LILIUM-4
1 71922C 26067AC 26089.50133053 -.00014632 00000+0 -74472-3 0 04
2 71922 97.4497 49.1617 0004341 5.9603 355.7042 15.16896692 16
